Back to catalog

LINGQIAO VIDEO A

AliveScienceSSO
NORAD 40959·PAYLOAD·🇨🇳 China

Launched Oct 7, 2015 from Jiuquan Satellite Launch Center

Loading…

Next Passes (next 24 hours)

TLE

FreshSource: Space-Track

Epoch: Sep 14, 2026, 14:58 UTC

1 40959U 15057B   26257.62429028  .00000486  00000-0  74798-4 0  9997
2 40959  97.6702 248.0551 0016494 344.0985  15.9706 14.77491040588615

Track LINGQIAO VIDEO A in real time with AllMySat

Download on the App Store